Location: Oyen
(51.3536°N, 110.4816°W)
Time: 03:24:46
(UTC+00:00)

ISS - Visible Passes

Search period start: 27 November 2021 00:00
Search period end: 07 December 2021 00:00
Orbit: 417 x 423 km, 51.6° (Epoch: 27 November)

Date Brightness Start Highest point End Pass type
(mag) Time Alt. Az. Time Alt. Az. Time Alt. Az.
27 Nov -3.5 00:34:07 10° WSW 00:37:29 65° SSE 00:39:44 19° E visible
27 Nov -1.7 02:10:54 10° W 02:12:43 29° W 02:12:43 29° W visible
28 Nov -3.9 01:23:44 10° W 01:27:09 84° N 01:27:25 74° ENE visible
29 Nov -3.8 00:36:34 10° W 00:39:58 90° N 00:42:06 21° E visible
29 Nov -1.5 02:13:26 10° W 02:15:05 26° W 02:15:05 26° W visible
30 Nov -3.9 01:26:15 10° W 01:29:40 88° N 01:29:47 82° E visible
01 Dec -3.8 00:39:02 10° W 00:42:26 83° N 00:44:30 22° E visible
01 Dec -1.4 02:15:53 10° W 02:17:29 25° W 02:17:29 25° W visible
01 Dec -3.7 23:51:47 10° W 23:55:12 84° N 23:58:36 10° E visible
02 Dec -3.7 01:28:39 10° W 01:32:03 68° SSW 01:32:15 66° S visible
03 Dec -3.7 00:41:24 10° W 00:44:49 82° SSW 00:47:04 20° ESE visible
03 Dec -1.2 02:18:24 10° W 02:20:03 22° WSW 02:20:03 22° WSW visible
03 Dec -3.7 23:54:09 10° W 23:57:34 88° N 00:00:59 10° E visible
04 Dec -2.6 01:31:02 10° W 01:34:16 39° SSW 01:34:58 34° S visible
05 Dec -3.0 00:43:44 10° W 00:47:04 53° SSW 00:50:00 12° SE visible
05 Dec -0.8 02:21:24 10° WSW 02:23:01 14° SW 02:23:01 14° SW visible
05 Dec -3.4 23:56:26 10° W 23:59:49 68° SSW 00:03:11 10° ESE visible
06 Dec -1.3 01:33:38 10° W 01:36:15 21° SW 01:38:15 13° S visible
